www.pogodaiklimat.ru

Погода и климат >> Архив погоды >> Южная Африка >> Vredendal


ПОГОДА в Vredendal

  • Прогноз погоды в Vredendal
  • Монитор погоды в Vredendal
  • Климат города

АРХИВ ПОГОДЫ в Vredendal

Время (UTC), дата Ветер
(напр.,м/с)
 
Видим.   Явления Облачность Т
(С)
Тd
(С)
f
(%)
Тe
(С)
Тes
(С)
Комфортность P
(гПа)
Po
(гПа)
Тmin
(С)
Tmax
(С)
R
(мм)
R24
(мм)
S
(см)
03 9.07 Ю 2 н/о н/о +10.2 +5.8 74 +9 +9 1023.4 1018.3 +10.2 +27.1
06 9.07 В 2 30 км ясно +9.2 +5.5 78 +8 +8 1023.9 1018.8 +8.3
09 9.07 Ю 1 н/о н/о +21.6 +8.3 42 +23 +23 комфорт 1024.1 1019.2 +8.3 +21.6
12 9.07 В 2 30 км ясно +27.9 +9.0 31 +28 +35 жарко 1021.4 1016.6 +8.3 +27.9
15 9.07 Ю 2 н/о н/о +26.7 +10.2 36 +27 +27 жарко 1021.1 1016.3 +26.7 +28.7
18 9.07 штиль 0 30 км ясно +17.6 +7.7 52 +18 +18 1021.9 1016.9 +17.4 +28.7
21 9.07 В 1 н/о н/о +12.5 +7.2 70 +13 +13 1023.1 1018.0 +12.5 +28.7
00 10.07 ЮВ 1 н/о н/о +9.5 +6.9 84 +9 +9 1023.4 1018.3 +9.4 +28.7
03 10.07 Ю 1 н/о н/о +8.8 +6.4 85 +8 +8 1023.3 1018.2 +8.7 +28.7
06 10.07 ЮВ 2 30 км 6/0
[Cs]
+8.0 +6.3 89 +6 +7 1025.1 1019.9 +7.3
09 10.07 ЮВ 2 н/о н/о +18.3 +11.4 64 +19 +19 1025.2 1020.2 +7.3 +18.3
12 10.07 ЮВ 2 30 км 5/0
[Ci ing]
+25.9 +12.2 43 +27 +34 жарко 1022.3 1017.5 +7.3 +25.9
15 10.07 В 2 н/о н/о +26.2 +6.0 27 +26 +26 жарко 1021.0 1016.2 +25.9 +27.3
18 10.07 штиль 0 30 км 4/0
[Ci]
+14.4 +7.7 64 +14 +14 1021.7 1016.7 +14.4 +27.3
21 10.07 Ю 1 н/о н/о +10.0 +6.1 77 +10 +10 1022.0 1016.9 +9.9 +27.3
00 11.07 Ю 2 н/о н/о +12.0 +5.8 66 +11 +11 1021.1 1016.0 +9.4 +27.3
03 11.07 ЮВ 2 н/о н/о +15.0 +7.1 59 +15 +15 1019.6 1014.6 +9.4 +27.3
06 11.07 Ю 1 30 км ясно +14.2 +7.3 63 +15 +15 1019.1 1014.1 +9.4
09 11.07 СВ 4 н/о н/о +24.3 +9.2 38 +25 +25 комфорт 1019.0 1014.1 +9.4 +24.3
12 11.07 СЗ 4 н/о н/о +30.3 +5.2 20 +28 +28 жарко 1015.5 1010.8 +9.4 +30.3
15 11.07 СЗ 3 н/о н/о +26.5 +3.9 23 +25 +25 комфорт 1014.3 1009.5 +26.5 +31.0
18 11.07 СЗ 1 30 км 3/0
[Ci sp]
+15.3 +7.4 59 +16 +16 1016.1 1011.1 +15.3 +31.0
21 11.07 штиль 0 н/о н/о +12.3 +7.2 71 +12 +12 1017.1 1012.1 +12.3 +31.0
00 12.07 штиль 0 н/о н/о +9.0 +6.1 82 +8 +8 1016.8 1011.7 +8.8 +31.0
03 12.07 Ю 1 н/о н/о +7.7 +5.5 86 +7 +7 1016.7 1011.6 +7.5 +31.0
06 12.07 ЮВ 1 30 км 8/6 600 м
[Sc Ci sp]
+7.6 +5.4 86 +7 +7 1019.1 1014.0 +7.5
09 12.07 СЗ 3 н/о н/о +18.0 +11.6 66 +18 +18 1019.7 1014.7 +7.5 +18.1
12 12.07 ЮЗ 4 30 км 10/6 600 м
[Sc]
+15.7 +8.5 62 +15 +16 1019.0 1014.0 +7.5 +18.3
15 12.07 З 2 н/о н/о +15.7 +7.5 58 +16 +16 1019.3 1014.3 +15.7 +18.3
18 12.07 штиль 0 30 км 10/10 600 м
[Sc]
+13.6 +9.4 76 +13 +13 1021.0 1016.0 +13.6 +18.3
21 12.07 ЮЗ 1 н/о н/о +12.7 +9.3 80 +13 +13 1021.9 1016.8 +12.7 +18.3
00 13.07 З 1 н/о н/о +11.0 +8.4 84 +11 +11 1022.3 1017.2 +11.0 +18.3
03 13.07 З 1 н/о н/о +8.0 +6.1 88 +7 +7 1022.8 1017.6 +8.0 +18.3
06 13.07 З 1 30 км 5/5 600 м
[Sc]
+6.7 +5.4 91 +6 +6 1024.4 1019.2 +6.7
09 13.07 штиль 0 н/о н/о +16.4 +8.2 58 +16 +16 1025.7 1020.7 +6.6 +16.7
12 13.07 З 3 30 км 9/9 600 м
[Sc]
+16.7 +6.0 49 +17 +17 1024.7 1019.7 +6.6 +18.5
15 13.07 З 3 н/о н/о +16.2 +6.1 51 +16 +16 1025.1 1020.1 +16.2 +18.5
18 13.07 СЗ 1 30 км 4/4 600 м
[Sc]
+10.6 +7.5 81 +10 +10 1027.0 1021.9 +10.6 +18.5
21 13.07 штиль 0 н/о н/о +7.8 +6.4 91 +7 +7 1028.6 1023.4 +7.7 +18.5
00 14.07 ЮЗ 1 н/о н/о +5.5 +4.4 93 +4 +4 1029.5 1024.3 +5.4 +18.5
03 14.07 штиль 0 н/о н/о +4.2 +3.3 94 +3 +3 1030.1 1024.8 +4.2 +18.5
06 14.07 штиль 0 100 м туман 10/10 <50 м
[St]
+4.5 +3.7 95 +3 +3 1032.0 1026.7 +4.1 0.4
09 14.07 Ю 2 н/о н/о +10.9 +8.6 86 +10 +10 1033.4 1028.2 +4.1 +11.2
12 14.07 ЮВ 2 30 км 4/4 600 м
[Cu hum]
+18.0 +6.9 48 +19 +23 1031.1 1026.1 +4.1 +18.0
15 14.07 ЮВ 3 н/о н/о +17.6 +3.2 38 +18 +18 1030.9 1025.9 +16.9 +18.6
18 14.07 Ю 2 30 км ясно +9.4 +3.8 68 +8 +8 1032.0 1026.8 +9.4 +18.6
21 14.07 ЮВ 2 н/о н/о +10.9 +3.0 58 +10 +10 1032.7 1027.5 +8.4 +18.6
00 15.07 ЮВ 2 н/о н/о +10.9 +3.0 58 +10 +10 1032.7 1027.5 +8.4 +18.6
03 15.07 Ю 4 н/о н/о +11.9 +1.3 48 +10 +10 1032.5 1027.4 +8.4 +18.6
06 15.07 ЮВ 4 30 км ясно +12.2 +0.9 46 +11 +11 1033.6 1028.5 +8.4
09 15.07 ЮВ 5 н/о н/о +16.8 +1.3 35 +16 +16 1033.7 1028.7 +8.4 +16.8
12 15.07 ЮВ 5 30 км ясно +20.5 +1.0 27 +21 +24 комфорт 1029.8 1024.8 +8.4 +20.5
15 15.07 ЮВ 4 н/о н/о +20.7 +0.6 26 +21 +21 комфорт 1028.6 1023.6 +20.5 +21.7
18 15.07 Ю 2 30 км 3/0
[Ci sp]
+12.2 +0.6 45 +12 +12 1029.0 1023.9 +12.2 +21.7
21 15.07 ЮВ 2 н/о н/о +13.6 -0.7 37 +14 +14 1028.5 1023.4 +12.2 +21.7
00 16.07 В 3 н/о н/о +14.4 -1.1 34 +14 +14 1027.4 1022.3 +11.1 +21.7 0.2

 

Местоположение метеостанции Vredendal (Южная Африка): широта -31.66 долгота 18.50 высота над уровнем моря 33 м.

В архиве по умолчанию представлена погода в Vredendal за последнюю неделю. Архивные данные за месяц целиком и за предыдущие месяцы, начиная с января 2011 года, Вы можете получить, выбрав интересующий диапазон дат из раскрывающегося списка и нажав кнопку "Ввод!".


*Определитесь, кто Вы:
робот инопланетянин человек

Внимание! Время в таблицах - всемирное. Для получения местного времени необходимо прибавить поправку, которая в Vredendal равна 2 ч.

Смотрите также архив погоды в соседних городах и на ближайших метеорологических станциях:

Погода в Lamberts Bay (Южная Африка) (44 км)
Погода в Nieuwoudtville (Южная Африка) (66 км)
Погода в Clanwilliam (Южная Африка) (69 км)
Погода в Calvinia (Южная Африка) (122 км)
Погода в Cape Columbine (Южная Африка) (144 км)
Погода в Langebaanweg (Южная Африка) (148 км)
Погода в Langebaan (Южная Африка) (164 км)
Погода в Excelsior Ceres (Южная Африка) (169 км)
Погода в Geelbek (Южная Африка) (175 км)
Погода в Porterville (Южная Африка) (189 км)

Пояснения к столбцам:

Ветер - указаны скорость ветра в м/с - средняя за 10 мин, порывы в срок и между сроками (в фигурных скобках) и направление, откуда дует ветер: С - северный, СВ - северо-восточный, В - восточный, ЮВ - юго-восточный, Ю - южный, ЮЗ - юго-западный, З - западный, СЗ - северо-западный.
Видимость - горизонтальная дальность видимости в метрах или километрах. При видимости от 1 до 10 км при отсутствии осадков обычно наблюдается дымка, при ухудшении видимости до 1 км и менее - туман. В сухую погоду видимость может ухудшаться дымом, пылью или мглою.
Явления - указаны атмосферные явления, наблюдавшиеся в срок или в последний час перед сроком; фигурными скобками обозначены явления, наблюдавшиеся между сроками (за 1-3 часа до срока); квадратными скобками обозначены град или гололедные отложения с указанием их диаметра в мм.
Облачность - указаны через наклонную черту общая и нижняя облачность в баллах и высота нижней границы облаков в метрах; квадратными скобками обозначены формы облаков: Ci - перистые, Cs - перисто-слоистые, Cc - перисто-кучевые, Ac - высококучевые, As - высокослоистые, Sc - слоисто-кучевые, Ns - слоисто-дождевые, Cu - кучевые, Cb - кучево-дождевые. Подробнее классификацию облаков см. в Атласе облаков (PDF).
T - Температура воздуха - температура, измеренная на высоте 2 м над землей.
Td - Температура точки росы - температура, при понижении до которой содержащийся в воздухе водяной пар достигнет насыщения.
f - Относительная влажность воздуха - влажноcть воздуха, измеренная на высоте 2 м над землей.
Te - Эффективная температура - температура, которую ощущает одетый по сезону человек в тени. Характеристика душности погоды. При расчете учитывается влияние влажности воздуха и скорости ветра на теплоощущения человека.
Tes - Эффективная температура на солнце - температура, которую ощущает человек, с поправкой на солнечный нагрев. Характеристика знойности погоды. Зависит от высоты солнца над горизонтом, облачности и скорости ветра. Ночью, в пасмурную погоду, а также при ветре 12 м/с и более поправка равна нулю.
P - Атмосферное давление - приведенное к уровню моря атмосферное давление.
Po - Атмосферное давление - измеренное на уровне метеостанции атмосферное давление.
Tmin - Минимальная температура - минимум температуры воздуха на высоте 2 м над землей.
Tmax - Максимальная температура - максимум температуры воздуха на высоте 2 м над землей.
R - Количество осадков - Количество выпавших осадков за период времени, мм. При наведении курсора мыши на число - период времени, за который выпало указанное количество осадков.
R24 - Количество осадков - Количество выпавших осадков за 24 часа, мм.
S - Снежный покров - Высота снежного покрова, см. При наведении курсора мыши на число - состояние снежного покрова и степень покрытия местности в баллах.